Current Weather Conditions: station 62114

sailwx.info

See reports from other nearby stations

no recent reports received from weather station ID 62114

Tides Pressure Air temp Water temp Dewpoint Dewpoint depression Visibility Wind speed Wind direction Waves Ship positions
date/time (UTC)wind fromknots sea level pressurealtimeterstation pressurevisibilityair tempwater tempwave heightnotes
2017-Jun-27 07:00 120 6 12.5
2017-Jun-27 06:00 100 5 16.3
2017-Jun-27 05:00 060 2 14.8
2017-Jun-27 04:00 040 4 14.1
2017-Jun-27 03:00 020 4 13.6
2017-Jun-27 02:00 020 5 12.7
2017-Jun-27 01:00 010 4 12.5
2017-Jun-27 00:00 360 5 13.0
2017-Jun-26 23:00 350 5 12.2
2017-Jun-26 22:00 350 6 11.9
2017-Jun-26 21:00 340 6 11.1
2017-Jun-26 20:00 350 6 13.4
2017-Jun-26 19:00 340 7 11.8
2017-Jun-26 18:00 350 8 12.8
2017-Jun-26 17:00 340 9 11.5
2017-Jun-26 16:00 340 11 10.9
2017-Jun-26 15:00 330 11 10.8
2017-Jun-26 14:00 340 12 10.9
2017-Jun-26 13:00 340 12 10.8
2017-Jun-26 12:00 320 13 10.4
2017-Jun-26 11:00 320 14 10.2
2017-Jun-26 10:00 320 14 10.4
2017-Jun-26 09:00 330 14 10.3
2017-Jun-26 08:00 320 14 10.2
2017-Jun-26 07:00 320 14 10.1
2017-Jun-26 06:00 320 17 9.7
2017-Jun-26 05:00 320 15 10.1
2017-Jun-26 04:00 320 15 10.2
2017-Jun-26 03:00 320 17 10.4
2017-Jun-26 02:00 320 17 10.5
2017-Jun-26 01:00 320 19 10.6
2017-Jun-26 00:00 310 20 10.6
2017-Jun-25 23:00 310 20 10.6
2017-Jun-25 22:00 310 21 10.7
2017-Jun-25 21:00 310 20 10.6
2017-Jun-25 20:00 310 21 10.6
2017-Jun-25 19:00 300 24 10.7
2017-Jun-25 18:00 300 26 10.9
2017-Jun-25 17:00 300 26 10.8
2017-Jun-25 16:00 290 26 10.8
2017-Jun-25 15:00 290 27 10.8
2017-Jun-25 14:00 290 27 10.8
2017-Jun-25 13:00 290 27 10.4
2017-Jun-25 12:00 290 27 10.4
2017-Jun-25 11:00 290 29 10.8
2017-Jun-25 10:00 290 31 10.7
2017-Jun-25 09:00 290 31 10.7
2017-Jun-25 08:00 280 32 10.5